CZ-6A DEB

Last updated on Fri Sep 06 2024 00:02:08 GMT+0000 (Coordinated Universal Time)

1 60988U 24140MP 24249.44069417 .00003804 00000+0 25330-2 0 9997 2 60988 89.1054 348.3478 0158417 142.5904 218.6428 13.95095585 2067
UTC large
Height (km)
Speed (km/s)
/
Latitude / Longitude
Inclination (degrees)
Orbital Period (minutes)
Azimuth
Elevation
Range (km)
Doppler Factor

Next 0 passes for location: London (51.5072 / 0.1276)

Sorry there are no passes over London.